Weather History for EGLL - March, 2013

Change the Weather History Date:

Sunday, March 24, 2013

  Actual Average Record
Temperature  
Mean Temperature 34 °F -  
Max Temperature 35 °F 55 °F 66 °F (2012)
Min Temperature 32 °F 40 °F 30 °F (2008)
Degree Days  
Heating Degree Days 32    
Moisture  
Dew Point 26 °F    
Average Humidity 77    
Maximum Humidity 93    
Minimum Humidity 48    
Precipitation  
Precipitation 0.01 in - - ()
Sea Level Pressure  
Sea Level Pressure 29.91 in    
Wind  
Wind Speed 11 mph ()    
Max Wind Speed 15 mph    
Max Gust Speed -    
Visibility 5.9 miles    
Events Rain , Snow    
Averages and records for this station are not official NWS values.
T = Trace of Precipitation, MM = Missing Value Source: Averaged Metar Reports

Daily Weather History Graph

Daily Weather History Graph

Search for Another Location

Airport or City:

Trip Planner

Search our weather history database for the weather conditions in past years. The results will help you decide how hot, cold, wet, or windy it might be!

Date:

Astronomy

Mar. 24, 2013 Rise Set
Actual Time 5:55 AM GMT 6:21 PM GMT
Civil Twilight 5:21 AM GMT 6:55 PM GMT
Nautical Twilight 4:42 AM GMT 7:35 PM GMT
Astronomical Twilight 4:00 AM GMT 8:17 PM GMT
Moon 3:19 PM GMT (3/24) 4:15 AM GMT (3/24)
Length of Visible Light 13h 33m
Length of Day
12h 26m
Waxing Gibbous, 90% of the Moon is Illuminated
Mar 24
Waxing Gibbous
Mar 27
Full
Apr 3
Last Quarter
Apr 10
New
Apr 18
First Quarter

Hourly Weather History & Observations

Time (GMT) Temp. Windchill Dew Point Humidity Pressure Visibility Wind Dir Wind Speed Gust Speed Precip Events Conditions
12:20 AM 33.8 °F 24.8 °F 32.0 °F 93% 29.89 in - ENE 12.7 mph - N/A   Mostly Cloudy
12:50 AM 33.8 °F 24.3 °F 32.0 °F 93% 29.89 in 3.1 mi ENE 13.8 mph - N/A   Overcast
1:20 AM 33.8 °F 25.3 °F 32.0 °F 93% 29.89 in 3.1 mi ENE 11.5 mph - N/A   Overcast
1:50 AM 33.8 °F 23.9 °F 30.2 °F 87% 29.86 in 3.7 mi ENE 15.0 mph - N/A   Overcast
2:20 AM 33.8 °F 23.9 °F 30.2 °F 87% 29.86 in 3.7 mi ENE 15.0 mph - N/A   Overcast
2:50 AM 34 °F - 30 °F 80% 29.88 in 5 mi ENE 12.7 mph - -   Light Haze
2:50 AM 33.8 °F 24.3 °F 30.2 °F 87% 29.86 in 3.7 mi ENE 13.8 mph - N/A   Mostly Cloudy
3:20 AM 33.8 °F 24.3 °F 30.2 °F 87% 29.86 in 5.0 mi ENE 13.8 mph - N/A   Overcast
3:50 AM 33.8 °F 25.8 °F 30.2 °F 87% 29.86 in 4.3 mi ENE 10.4 mph - N/A   Overcast
4:20 AM 33.8 °F 24.8 °F 30.2 °F 87% 29.86 in 5.0 mi ENE 12.7 mph - N/A   Overcast
4:50 AM 33.8 °F 25.3 °F 30.2 °F 87% 29.89 in 4.3 mi ENE 11.5 mph - N/A   Overcast
5:20 AM 33.8 °F 24.8 °F 28.4 °F 81% 29.89 in 4.3 mi ENE 12.7 mph - N/A   Overcast
5:50 AM 33 °F - 28 °F 77% 29.89 in 5 mi ENE 11.5 mph - -   Light Haze
5:50 AM 32.0 °F 22.5 °F 28.4 °F 87% 29.89 in 4.3 mi ENE 12.7 mph - N/A   Overcast
6:20 AM 32.0 °F 22.5 °F 28.4 °F 87% 29.89 in 3.7 mi ENE 12.7 mph - N/A   Overcast
6:50 AM 32.0 °F 23.0 °F 28.4 °F 87% 29.89 in 3.7 mi ENE 11.5 mph - N/A   Overcast
7:20 AM 32.0 °F 23.0 °F 28.4 °F 87% 29.89 in 4.3 mi ENE 11.5 mph - N/A   Overcast
7:50 AM 32.0 °F 22.1 °F 28.4 °F 87% 29.89 in 3.7 mi ENE 13.8 mph - N/A Snow Light Snow Grains
8:20 AM 32.0 °F 22.5 °F 28.4 °F 87% 29.89 in 4.3 mi ENE 12.7 mph - N/A   Mostly Cloudy
8:50 AM 32 °F - 28 °F 78% 29.91 in 6 mi ENE 12.7 mph - - Rain Rain
8:50 AM 32.0 °F 22.5 °F 28.4 °F 87% 29.89 in 6.2 mi ENE 12.7 mph - N/A   Mostly Cloudy
9:20 AM 32.0 °F 22.1 °F 28.4 °F 87% 29.92 in 5.6 mi ENE 13.8 mph - N/A Snow Light Snow
9:50 AM 32.0 °F 23.0 °F 28.4 °F 87% 29.92 in 6.2 mi ENE 11.5 mph - N/A   Overcast
10:20 AM 32.0 °F 22.1 °F 28.4 °F 87% 29.92 in 6.2 mi ENE 13.8 mph - N/A   Overcast
10:50 AM 32.0 °F 22.5 °F 26.6 °F 80% 29.92 in 6.2 mi ENE 12.7 mph - N/A   Overcast
11:20 AM 32.0 °F 22.5 °F 26.6 °F 80% 29.92 in 6.2 mi ENE 12.7 mph - N/A   Overcast
11:50 AM 32 °F - 27 °F 76% 29.93 in 7 mi NE 11.5 mph - -   Unknown Precipitation
11:50 AM 32.0 °F 22.5 °F 26.6 °F 80% 29.92 in 6.2 mi ENE 12.7 mph - N/A   Overcast
12:20 PM 32.0 °F 21.6 °F 26.6 °F 80% 29.92 in 6.2 mi ENE 15.0 mph - N/A   Mostly Cloudy
12:50 PM 32.0 °F 22.1 °F 26.6 °F 80% 29.92 in 6.2 mi ENE 13.8 mph - N/A   Overcast
1:20 PM 32.0 °F 22.1 °F 26.6 °F 80% 29.92 in 6.2 mi ENE 13.8 mph - N/A   Overcast
1:50 PM 32.0 °F 23.0 °F 26.6 °F 80% 29.92 in 6.2 mi ENE 11.5 mph - N/A   Mostly Cloudy
2:20 PM 32.0 °F 22.1 °F 26.6 °F 80% 29.92 in 6.2 mi ENE 13.8 mph - N/A   Mostly Cloudy
2:50 PM 32 °F - 26 °F 71% 29.93 in 9 mi ENE 13.8 mph - -   Unknown Precipitation
2:50 PM 32.0 °F 22.5 °F 26.6 °F 80% 29.92 in 6.2 mi ENE 12.7 mph - N/A   Mostly Cloudy
3:20 PM 32.0 °F 22.5 °F 26.6 °F 80% 29.92 in 6.2 mi ENE 12.7 mph - N/A   Mostly Cloudy
3:50 PM 32.0 °F 22.1 °F 26.6 °F 80% 29.92 in 6.2 mi ENE 13.8 mph - N/A   Mostly Cloudy
4:20 PM 32.0 °F 23.6 °F 24.8 °F 75% 29.92 in 6.2 mi ENE 10.4 mph - N/A   Mostly Cloudy
4:50 PM 32.0 °F 23.6 °F 24.8 °F 75% 29.92 in 6.2 mi ENE 10.4 mph - N/A   Mostly Cloudy
5:20 PM 32.0 °F 23.0 °F 24.8 °F 75% 29.92 in 6.2 mi ENE 11.5 mph - N/A   Overcast
5:50 PM 33 °F - 25 °F 61% 29.94 in 12 mi ENE 9.2 mph - -   Mostly Cloudy
5:50 PM 32.0 °F 23.6 °F 24.8 °F 75% 29.92 in 6.2 mi ENE 10.4 mph - N/A   Overcast
6:20 PM 33.8 °F 27.7 °F 23.0 °F 65% 29.95 in 6.2 mi ENE 6.9 mph - N/A   Mostly Cloudy
6:50 PM 33.8 °F 26.4 °F 23.0 °F 65% 29.95 in 6.2 mi ENE 9.2 mph - N/A   Mostly Cloudy
7:20 PM 33.8 °F 26.4 °F 21.2 °F 60% 29.95 in 6.2 mi ENE 9.2 mph - N/A   Mostly Cloudy
7:50 PM 33.8 °F 27.0 °F 21.2 °F 60% 29.95 in 6.2 mi ENE 8.1 mph - N/A   Mostly Cloudy
8:20 PM 33.8 °F 28.6 °F 23.0 °F 65% 29.95 in 6.2 mi NE 5.8 mph - N/A   Mostly Cloudy
8:50 PM 34 °F - 22 °F 51% 29.96 in 17 mi NE 10.4 mph - -   Overcast
8:50 PM 33.8 °F 27.7 °F 23.0 °F 65% 29.95 in 6.2 mi NE 6.9 mph - N/A   Mostly Cloudy
9:20 PM 33.8 °F 27.7 °F 23.0 °F 65% 29.95 in - NE 6.9 mph - N/A   Clear
9:50 PM 33.8 °F 27.0 °F 21.2 °F 60% 29.95 in - NE 8.1 mph - N/A   Clear
10:20 PM 33.8 °F 26.4 °F 21.2 °F 60% 29.95 in - NE 9.2 mph - N/A   Clear
10:50 PM 33.8 °F 27.0 °F 21.2 °F 60% 29.95 in 6.2 mi NE 8.1 mph - N/A   Partly Cloudy
11:20 PM 33.8 °F 26.4 °F 21.2 °F 60% 29.95 in - NE 9.2 mph - N/A   Clear
11:50 PM 35 °F - 22 °F 48% 29.96 in 10 mi NE 10.4 mph - -   Overcast
11:50 PM 33.8 °F 26.4 °F 21.2 °F 60% 29.95 in - NE 9.2 mph - N/A   Clear